#timestamp,LO_Frequency,Hit,StdDev 
1650337215.0,286046999.0,N
1650337215.9,286046999.0,N
1650337235.8,286046998.8,N
1650337255.6,286046996.7,N
1650337275.5,286047011.9,Y
1650337295.3,286047002.9,P
1650337315.1,286047003.5,N
1650337335.9,286047003.9,N
1650337355.7,286047004.4,N
1650337375.5,286047002.8,N
1650337395.4,286046999.8,N
1650337415.2,286047001.1,N
1650337435.1,286046999.9,N
1650337436.0,286046999.9,N
1650337455.8,286047000.1,N
1650337475.6,286047001.8,N
1650337495.5,286047002.8,N
1650337515.3,286046998.2,N
1650337535.1,286047000.5,N
1650337555.9,286047004.2,N
1650337575.7,286047004.2,N
1650337595.6,286046999.8,N
1650337615.4,286047000.8,N
1650337635.2,286046997.7,N
1650337655.1,286046997.2,N
1650337656.0,286046997.2,N
1650337675.8,286046995.6,N
1650337695.6,286046997.1,N
1650337715.5,286047001.2,N
1650337735.3,286047002.9,N
1650337755.2,286047005.1,N
1650337775.9,286047001.9,N
1650337795.7,286047011.9,Y
1650337815.6,286047000.6,P
1650337835.4,286047004.5,P
1650337855.3,286047006.8,P
1650337875.1,286047003.0,N
1650337876.0,286047003.0,N
1650337895.8,286047003.3,N
1650337915.7,286047003.7,N
1650337935.5,286047005.9,Y
1650337955.3,286047004.4,P
1650337975.2,286046999.9,N
1650337995.0,286046997.1,N
1650337995.9,286046997.1,N
1650338015.8,286046997.7,N
1650338035.6,286046995.7,N
1650338055.4,286046992.1,N
1650338075.3,286046993.8,N
1650338095.1,286046996.3,N
1650338115.8,286046998.0,N
1650338135.7,286046993.4,N
1650338155.5,286046993.8,N
1650338175.4,286046994.3,N
1650338195.2,286046993.9,N
1650338215.0,286046993.8,N
1650338215.9,286046993.8,N
1650338235.8,286046993.8,N
1650338255.6,286046994.3,N
1650338275.4,286046993.0,N
1650338295.3,286046992.8,N
1650338315.1,286046992.0,N
1650338335.9,286046994.4,N
1650338355.7,286046992.4,N
1650338375.5,286046990.5,N
1650338395.4,286046991.9,N
1650338415.2,286046993.7,N
1650338435.0,286046994.4,N
1650338435.9,286046994.4,N
1650338455.8,286046993.6,N
1650338475.6,286046992.1,N
1650338495.5,286046993.1,N
1650338515.3,286046988.5,Y
1650338535.1,286046995.3,P
1650338555.9,286046994.9,P
1650338575.7,286046996.8,P
1650338595.6,286046996.9,Y
1650338615.4,286047002.4,P
1650338635.2,286047004.4,N
1650338655.1,286047003.7,N
1650338656.0,286047003.7,N
1650338675.8,286047004.7,N
1650338695.6,286047005.1,N
1650338715.5,286047002.9,N
1650338735.3,286047004.2,N
1650338755.2,286047002.0,N
1650338775.9,286046999.9,N
1650338795.7,286047000.7,N
1650338815.6,286047000.8,N
1650338835.4,286047000.8,N
1650338855.2,286047000.9,N
1650338875.1,286047000.4,N
1650338876.0,286047000.4,N
1650338895.8,286047003.6,N
1650338915.7,286047003.9,N
1650338935.5,286047006.0,N
1650338955.3,286047001.4,N
1650338975.2,286047002.4,N
1650338995.9,286047000.3,N
1650339015.7,286046999.7,N
1650339035.6,286047001.6,N
1650339055.4,286047003.7,N
1650339075.3,286047003.9,N
1650339095.1,286047003.1,N
1650339096.0,286047003.1,N
1650339115.8,286047003.5,N
1650339135.7,286047004.0,N
1650339155.5,286047000.6,N
1650339175.3,286047000.1,N
1650339195.2,286046999.9,N
1650339215.0,286047000.2,N
1650339215.9,286047000.2,N
1650339235.8,286047000.2,N
1650339255.6,286047002.3,N
1650339275.4,286047002.3,N
1650339295.3,286047002.4,N
1650339315.1,286047003.9,N
1650339335.9,286047003.7,N
1650339355.7,286047002.1,N
1650339375.5,286046998.1,N
1650339395.4,286047001.1,N
1650339415.2,286047002.8,N
1650339435.0,286046998.4,N
1650339435.9,286046998.4,N
1650339455.8,286046998.3,N
1650339475.6,286046998.7,N
1650339495.5,286047000.8,N
1650339515.3,286047001.7,N
1650339535.1,286047004.3,N
1650339555.9,286047001.9,N
1650339575.7,286047003.2,N
1650339595.5,286047003.9,N
1650339615.4,286047002.4,N
1650339635.2,286047000.3,N
1650339655.1,286046998.3,N
1650339656.0,286046998.3,N
1650339675.8,286046999.3,N
1650339695.6,286046996.9,N
1650339715.5,286047002.7,N
1650339735.3,286047005.2,N
1650339755.1,286047003.7,N
1650339775.9,286047001.6,N
1650339795.7,286047000.4,N
1650339815.6,286047001.6,N
1650339835.4,286047002.0,N
1650339855.2,286046998.2,N
1650339875.1,286047003.0,N
1650339876.0,286047003.0,N
1650339895.8,286047004.7,N
1650339915.6,286047005.9,N
1650339935.5,286047003.0,N
1650339955.3,286047004.1,N
1650339975.2,286047004.2,N
1650339995.9,286047001.9,N
1650340015.7,286046999.8,N
1650340035.6,286047002.6,N
1650340055.4,286047002.1,N
1650340075.2,286047000.1,N
1650340095.1,286047002.7,N
1650340126.0,286047006.2,E
1650340135.0,286047005.8,N
1650340135.9,286047005.8,P
1650340155.8,286046996.6,P
1650340175.6,286046997.1,N
1650340195.5,286046997.1,N
1650340215.3,286046993.9,N
1650340235.1,286046992.0,N
1650340255.9,286046990.1,N
1650340275.7,286046990.7,N
1650340295.5,286046992.7,N
1650340315.4,286046995.0,N
1650340335.2,286046996.1,N
1650340355.1,286046997.8,N
1650340356.0,286046997.8,N
1650340375.8,286046994.9,N
1650340395.6,286046995.1,N
1650340415.5,286046997.0,N
1650340435.3,286047002.3,N
1650340455.1,286047000.1,N
1650340475.9,286047001.2,N
1650340495.7,286046997.3,N
1650340515.6,286046997.8,N
1650340535.4,286046999.1,N
1650340555.2,286046998.7,N
1650340575.1,286047000.2,N
1650340576.0,286047000.2,N
1650340595.8,286047000.6,N
1650340615.6,286046999.6,N
1650340635.5,286046996.3,N
1650340655.3,286046993.5,N
1650340675.2,286046995.0,N
1650340695.9,286046994.9,N
1650340715.7,286046998.0,N
1650340735.6,286046994.9,N
1650340755.4,286046995.7,N
1650340775.2,286046995.1,N
1650340795.1,286046992.0,N
1650340796.0,286046992.0,N
